Year,Month,Day,Hour,Minute,Value (Times are PST for insolation in W/m^2)
2016,11,08,00,00,0.00
2016,11,08,00,01,0.00
2016,11,08,00,02,0.00
2016,11,08,00,03,0.00
2016,11,08,00,04,0.00
2016,11,08,00,05,0.00
2016,11,08,00,06,0.00
2016,11,08,00,07,0.00
2016,11,08,00,08,0.00
2016,11,08,00,09,0.00
2016,11,08,00,10,0.00
2016,11,08,00,11,0.00
2016,11,08,00,12,0.00
2016,11,08,00,13,0.00
2016,11,08,00,14,0.00
2016,11,08,00,15,0.00
2016,11,08,00,16,0.00
2016,11,08,00,17,0.00
2016,11,08,00,18,0.00
2016,11,08,00,19,0.00
2016,11,08,00,20,0.00
2016,11,08,00,21,0.00
2016,11,08,00,22,0.00
2016,11,08,00,23,0.00
2016,11,08,00,24,0.00
2016,11,08,00,25,0.00
2016,11,08,00,26,0.00
2016,11,08,00,27,0.00
2016,11,08,00,28,0.00
2016,11,08,00,29,0.00
2016,11,08,00,30,0.00
2016,11,08,00,31,0.00
2016,11,08,00,32,0.00
2016,11,08,00,33,0.00
2016,11,08,00,34,0.00
2016,11,08,00,35,0.00
2016,11,08,00,36,0.00
2016,11,08,00,37,0.00
2016,11,08,00,38,0.00
2016,11,08,00,39,0.00
2016,11,08,00,40,0.00
2016,11,08,00,41,0.00
2016,11,08,00,42,0.00
2016,11,08,00,43,0.00
2016,11,08,00,44,0.00
2016,11,08,00,45,0.00
2016,11,08,00,46,0.00
2016,11,08,00,47,0.00
2016,11,08,00,48,0.00
2016,11,08,00,49,0.00
2016,11,08,00,50,0.00
2016,11,08,00,51,0.00
2016,11,08,00,52,0.00
2016,11,08,00,53,0.00
2016,11,08,00,54,0.00
2016,11,08,00,55,0.00
2016,11,08,00,56,0.00
2016,11,08,00,57,0.00
2016,11,08,00,58,0.00
2016,11,08,00,59,0.00
2016,11,08,01,00,0.00
2016,11,08,01,01,0.00
2016,11,08,01,02,0.00
2016,11,08,01,03,0.00
2016,11,08,01,04,0.00
2016,11,08,01,05,0.00
2016,11,08,01,06,0.00
2016,11,08,01,07,0.00
2016,11,08,01,08,0.00
2016,11,08,01,09,0.00
2016,11,08,01,10,0.00
2016,11,08,01,11,0.00
2016,11,08,01,12,0.00
2016,11,08,01,13,0.00
2016,11,08,01,14,0.00
2016,11,08,01,15,0.00
2016,11,08,01,16,0.00
2016,11,08,01,17,0.00
2016,11,08,01,18,0.00
2016,11,08,01,19,0.00
2016,11,08,01,20,0.00
2016,11,08,01,21,0.00
2016,11,08,01,22,0.00
2016,11,08,01,23,0.00
2016,11,08,01,24,0.00
2016,11,08,01,25,0.00
2016,11,08,01,26,0.00
2016,11,08,01,27,0.00
2016,11,08,01,28,0.00
2016,11,08,01,29,0.00
2016,11,08,01,30,0.00
2016,11,08,01,31,0.00
2016,11,08,01,32,0.00
2016,11,08,01,33,0.00
2016,11,08,01,34,0.00
2016,11,08,01,35,0.00
2016,11,08,01,36,0.00
2016,11,08,01,37,0.00
2016,11,08,01,38,0.00
2016,11,08,01,39,0.00
2016,11,08,01,40,0.00
2016,11,08,01,41,0.00
2016,11,08,01,42,0.00
2016,11,08,01,43,0.00
2016,11,08,01,44,0.00
2016,11,08,01,45,0.00
2016,11,08,01,46,0.00
2016,11,08,01,47,0.00
2016,11,08,01,48,0.00
2016,11,08,01,49,0.00
2016,11,08,01,50,0.00
2016,11,08,01,51,0.00
2016,11,08,01,52,0.00
2016,11,08,01,53,0.00
2016,11,08,01,54,0.00
2016,11,08,01,55,0.00
2016,11,08,01,56,0.00
2016,11,08,01,57,0.00
2016,11,08,01,58,0.00
2016,11,08,01,59,0.00
2016,11,08,02,00,0.00
2016,11,08,02,01,0.00
2016,11,08,02,02,0.00
2016,11,08,02,03,0.00
2016,11,08,02,04,0.00
2016,11,08,02,05,0.00
2016,11,08,02,06,0.00
2016,11,08,02,07,0.00
2016,11,08,02,08,0.00
2016,11,08,02,09,0.00
2016,11,08,02,10,0.00
2016,11,08,02,11,0.00
2016,11,08,02,12,0.00
2016,11,08,02,13,0.00
2016,11,08,02,14,0.00
2016,11,08,02,15,0.00
2016,11,08,02,16,0.00
2016,11,08,02,17,0.00
2016,11,08,02,18,0.00
2016,11,08,02,19,0.00
2016,11,08,02,20,0.00
2016,11,08,02,21,0.00
2016,11,08,02,22,0.00
2016,11,08,02,23,0.00
2016,11,08,02,24,0.00
2016,11,08,02,25,0.00
2016,11,08,02,26,0.00
2016,11,08,02,27,0.00
2016,11,08,02,28,0.00
2016,11,08,02,29,0.00
2016,11,08,02,30,0.00
2016,11,08,02,31,0.00
2016,11,08,02,32,0.00
2016,11,08,02,33,0.00
2016,11,08,02,34,0.00
2016,11,08,02,35,0.00
2016,11,08,02,36,0.00
2016,11,08,02,37,0.00
2016,11,08,02,38,0.00
2016,11,08,02,39,0.00
2016,11,08,02,40,0.00
2016,11,08,02,41,0.00
2016,11,08,02,42,0.00
2016,11,08,02,43,0.00
2016,11,08,02,44,0.00
2016,11,08,02,45,0.00
2016,11,08,02,46,0.00
2016,11,08,02,47,0.00
2016,11,08,02,48,0.00
2016,11,08,02,49,0.00
2016,11,08,02,50,0.00
2016,11,08,02,51,0.00
2016,11,08,02,52,0.00
2016,11,08,02,53,0.00
2016,11,08,02,54,0.00
2016,11,08,02,55,0.00
2016,11,08,02,56,0.00
2016,11,08,02,57,0.00
2016,11,08,02,58,0.00
2016,11,08,02,59,0.00
2016,11,08,03,00,0.00
2016,11,08,03,01,0.00
2016,11,08,03,02,0.00
2016,11,08,03,03,0.00
2016,11,08,03,04,0.00
2016,11,08,03,05,0.00
2016,11,08,03,06,0.00
2016,11,08,03,07,0.00
2016,11,08,03,08,0.00
2016,11,08,03,09,0.00
2016,11,08,03,10,0.00
2016,11,08,03,11,0.00
2016,11,08,03,12,0.00
2016,11,08,03,13,0.00
2016,11,08,03,14,0.00
2016,11,08,03,15,0.00
2016,11,08,03,16,0.00
2016,11,08,03,17,0.00
2016,11,08,03,18,0.00
2016,11,08,03,19,0.00
2016,11,08,03,20,0.00
2016,11,08,03,21,0.00
2016,11,08,03,22,0.00
2016,11,08,03,23,0.00
2016,11,08,03,24,0.00
2016,11,08,03,25,0.00
2016,11,08,03,26,0.00
2016,11,08,03,27,0.00
2016,11,08,03,28,0.00
2016,11,08,03,29,0.00
2016,11,08,03,30,0.00
2016,11,08,03,31,0.00
2016,11,08,03,32,0.00
2016,11,08,03,33,0.00
2016,11,08,03,34,0.00
2016,11,08,03,35,0.00
2016,11,08,03,36,0.00
2016,11,08,03,37,0.00
2016,11,08,03,38,0.00
2016,11,08,03,39,0.00
2016,11,08,03,40,0.00
2016,11,08,03,41,0.00
2016,11,08,03,42,0.00
2016,11,08,03,43,0.00
2016,11,08,03,44,0.00
2016,11,08,03,45,0.00
2016,11,08,03,46,0.00
2016,11,08,03,47,0.00
2016,11,08,03,48,0.00
2016,11,08,03,49,0.00
2016,11,08,03,50,0.00
2016,11,08,03,51,0.00
2016,11,08,03,52,0.00
2016,11,08,03,53,0.00
2016,11,08,03,54,0.00
2016,11,08,03,55,0.00
2016,11,08,03,56,0.00
2016,11,08,03,57,0.00
2016,11,08,03,58,0.00
2016,11,08,03,59,0.00
2016,11,08,04,00,0.00
2016,11,08,04,01,0.00
2016,11,08,04,02,0.00
2016,11,08,04,03,0.00
2016,11,08,04,04,0.00
2016,11,08,04,05,0.00
2016,11,08,04,06,0.00
2016,11,08,04,07,0.00
2016,11,08,04,08,0.00
2016,11,08,06,24,0.00
2016,11,08,06,25,0.00
2016,11,08,06,26,0.00
2016,11,08,06,27,0.00
2016,11,08,06,28,0.00
2016,11,08,06,29,0.00
2016,11,08,06,30,0.00
2016,11,08,06,31,0.00
2016,11,08,06,32,0.00
2016,11,08,06,33,0.00
2016,11,08,06,34,0.00
2016,11,08,06,35,0.00
2016,11,08,06,36,0.00
2016,11,08,06,37,0.00
2016,11,08,06,38,0.00
2016,11,08,06,39,0.00
2016,11,08,06,40,0.00
2016,11,08,06,41,0.00
2016,11,08,06,42,0.00
2016,11,08,06,43,0.00
2016,11,08,06,44,0.00
2016,11,08,06,45,0.00
2016,11,08,06,46,0.00
2016,11,08,06,47,0.00
2016,11,08,06,48,0.00
2016,11,08,06,49,0.00
2016,11,08,06,50,0.00
2016,11,08,06,51,0.00
2016,11,08,06,52,0.00
2016,11,08,06,53,0.00
2016,11,08,06,54,0.00
2016,11,08,06,55,0.00
2016,11,08,06,56,0.00
2016,11,08,06,57,0.00
2016,11,08,06,58,0.00
2016,11,08,06,59,0.00
2016,11,08,07,00,0.00
2016,11,08,07,01,0.00
2016,11,08,07,02,0.00
2016,11,08,07,03,0.00
2016,11,08,07,04,0.00
2016,11,08,07,05,0.00
2016,11,08,07,06,0.00
2016,11,08,07,07,0.00
2016,11,08,07,08,0.00
2016,11,08,07,09,0.00
2016,11,08,07,10,0.00
2016,11,08,07,11,0.00
2016,11,08,07,12,4.50
2016,11,08,07,13,5.00
2016,11,08,07,14,5.00
2016,11,08,07,15,5.00
2016,11,08,07,16,5.00
2016,11,08,07,17,5.00
2016,11,08,07,18,5.00
2016,11,08,07,19,5.00
2016,11,08,07,20,5.60
2016,11,08,07,21,7.70
2016,11,08,07,22,9.80
2016,11,08,07,23,10.20
2016,11,08,07,24,10.40
2016,11,08,07,25,13.00
2016,11,08,07,26,14.00
2016,11,08,07,27,15.10
2016,11,08,07,28,17.20
2016,11,08,07,29,18.60
2016,11,08,07,30,21.90
2016,11,08,07,31,28.20
2016,11,08,07,32,32.40
2016,11,08,07,33,33.00
2016,11,08,07,34,34.80
2016,11,08,07,35,43.50
2016,11,08,07,36,46.80
2016,11,08,07,37,51.10
2016,11,08,07,38,52.60
2016,11,08,07,39,49.00
2016,11,08,07,40,49.80
2016,11,08,07,41,52.60
2016,11,08,07,42,51.50
2016,11,08,07,43,51.90
2016,11,08,07,44,49.00
2016,11,08,07,45,49.70
2016,11,08,07,46,52.20
2016,11,08,07,47,54.00
2016,11,08,07,48,61.10
2016,11,08,07,49,74.20
2016,11,08,07,50,80.10
2016,11,08,07,51,82.30
2016,11,08,07,52,72.10
2016,11,08,07,53,78.20
2016,11,08,07,54,83.00
2016,11,08,07,55,83.80
2016,11,08,07,56,85.70
2016,11,08,07,57,86.00
2016,11,08,07,58,86.00
2016,11,08,07,59,83.30
2016,11,08,08,00,86.00
2016,11,08,08,01,88.10
2016,11,08,08,02,90.40
2016,11,08,08,03,93.30
2016,11,08,08,04,95.30
2016,11,08,08,05,97.70
2016,11,08,08,06,100.00
2016,11,08,08,07,100.00
2016,11,08,08,08,100.70
2016,11,08,08,09,102.00
2016,11,08,08,10,102.90
2016,11,08,08,11,70.50
2016,11,08,08,12,42.30
2016,11,08,08,13,73.30
2016,11,08,08,14,101.80
2016,11,08,08,15,110.90
2016,11,08,08,16,133.30
2016,11,08,08,17,146.30
2016,11,08,08,18,88.60
2016,11,08,08,19,79.30
2016,11,08,08,20,154.40
2016,11,08,08,21,164.80
2016,11,08,08,22,111.90
2016,11,08,08,23,75.80
2016,11,08,08,24,73.80
2016,11,08,08,25,71.70
2016,11,08,08,26,70.30
2016,11,08,08,27,72.80
2016,11,08,08,28,96.70
2016,11,08,08,29,170.60
2016,11,08,08,30,193.00
2016,11,08,08,31,194.20
2016,11,08,08,32,190.10
2016,11,08,08,33,184.00
2016,11,08,08,34,178.60
2016,11,08,08,35,174.90
2016,11,08,08,36,172.20
2016,11,08,08,37,171.00
2016,11,08,08,38,171.00
2016,11,08,08,39,171.00
2016,11,08,08,40,171.00
2016,11,08,08,41,135.80
2016,11,08,08,42,174.00
2016,11,08,08,43,208.30
2016,11,08,08,44,221.80
2016,11,08,08,45,223.00
2016,11,08,08,46,154.40
2016,11,08,08,47,199.70
2016,11,08,08,48,151.10
2016,11,08,08,49,101.10
2016,11,08,08,50,73.70
2016,11,08,08,51,63.20
2016,11,08,08,52,56.90
2016,11,08,08,53,53.70
2016,11,08,08,54,54.20
2016,11,08,08,55,74.50
2016,11,08,08,56,91.90
2016,11,08,08,57,103.00
2016,11,08,08,58,116.20
2016,11,08,08,59,109.00
2016,11,08,09,00,98.20
2016,11,08,09,01,85.80
2016,11,08,09,02,84.90
2016,11,08,09,03,88.80
2016,11,08,09,04,90.00
2016,11,08,09,05,84.90
2016,11,08,09,06,87.40
2016,11,08,09,07,98.90
2016,11,08,09,08,113.30
2016,11,08,09,09,120.70
2016,11,08,09,10,115.40
2016,11,08,09,11,102.70
2016,11,08,09,12,94.20
2016,11,08,09,13,90.20
2016,11,08,09,14,91.40
2016,11,08,09,15,92.50
2016,11,08,09,16,89.50
2016,11,08,09,17,85.30
2016,11,08,09,18,83.60
2016,11,08,09,19,83.00
2016,11,08,09,20,83.50
2016,11,08,09,21,85.10
2016,11,08,09,22,88.80
2016,11,08,09,23,94.70
2016,11,08,09,24,100.30
2016,11,08,09,25,102.00
2016,11,08,09,26,104.20
2016,11,08,09,27,108.00
2016,11,08,09,28,110.60
2016,11,08,09,29,120.00
2016,11,08,09,30,110.20
2016,11,08,09,31,113.80
2016,11,08,09,32,125.00
2016,11,08,09,33,142.10
2016,11,08,09,34,164.20
2016,11,08,09,35,186.20
2016,11,08,09,36,192.40
2016,11,08,09,37,200.50
2016,11,08,09,38,234.00
2016,11,08,09,39,281.10
2016,11,08,09,40,367.60
2016,11,08,09,41,337.70
2016,11,08,09,42,323.20
2016,11,08,09,43,300.50
2016,11,08,09,44,285.50
2016,11,08,09,45,277.00
2016,11,08,09,46,270.90
2016,11,08,09,47,267.70
2016,11,08,09,48,268.40
2016,11,08,09,49,270.50
2016,11,08,09,50,271.80
2016,11,08,09,51,273.70
2016,11,08,09,52,277.40
2016,11,08,09,53,280.90
2016,11,08,09,54,282.90
2016,11,08,09,55,287.00
2016,11,08,09,56,287.00
2016,11,08,09,57,286.80
2016,11,08,09,58,285.00
2016,11,08,09,59,285.00
2016,11,08,10,00,285.00
2016,11,08,10,01,285.00
2016,11,08,10,02,285.60
2016,11,08,10,03,287.40
2016,11,08,10,04,288.90
2016,11,08,10,05,291.80
2016,11,08,10,06,294.50
2016,11,08,10,07,296.10
2016,11,08,10,08,299.30
2016,11,08,10,09,301.60
2016,11,08,10,10,304.70
2016,11,08,10,11,306.00
2016,11,08,10,12,308.20
2016,11,08,10,13,309.00
2016,11,08,10,14,309.00
2016,11,08,10,15,309.00
2016,11,08,10,16,309.00
2016,11,08,10,17,309.00
2016,11,08,10,18,311.00
2016,11,08,10,19,311.70
2016,11,08,10,20,318.50
2016,11,08,10,21,324.60
2016,11,08,10,22,336.70
2016,11,08,10,23,352.50
2016,11,08,10,24,371.40
2016,11,08,10,25,390.40
2016,11,08,10,26,407.90
2016,11,08,10,27,419.70
2016,11,08,10,28,426.40
2016,11,08,10,29,433.70
2016,11,08,10,30,443.50
2016,11,08,10,31,452.20
2016,11,08,10,32,454.40
2016,11,08,10,33,446.90
2016,11,08,10,34,438.10
2016,11,08,10,35,441.20
2016,11,08,10,36,448.30
2016,11,08,10,37,450.00
2016,11,08,10,38,459.40
2016,11,08,10,39,461.90
2016,11,08,10,40,410.60
2016,11,08,10,41,398.50
2016,11,08,10,42,219.40
2016,11,08,10,43,233.10
2016,11,08,10,44,239.80
2016,11,08,10,45,243.00
2016,11,08,10,46,239.00
2016,11,08,10,47,287.20
2016,11,08,10,48,440.00
2016,11,08,10,49,476.70
2016,11,08,10,50,476.80
2016,11,08,10,51,472.30
2016,11,08,10,52,473.50
2016,11,08,10,53,467.50
2016,11,08,10,54,476.40
2016,11,08,10,55,489.00
2016,11,08,10,56,489.00
2016,11,08,10,57,489.00
2016,11,08,10,58,489.00
2016,11,08,10,59,295.60
2016,11,08,11,00,240.00
2016,11,08,11,01,216.90
2016,11,08,11,02,213.00
2016,11,08,11,03,301.40
2016,11,08,11,04,299.30
2016,11,08,11,05,161.90
2016,11,08,11,06,138.20
2016,11,08,11,07,181.60
2016,11,08,11,08,214.00
2016,11,08,11,09,214.00
2016,11,08,11,10,196.50
2016,11,08,11,11,172.30
2016,11,08,11,12,229.00
2016,11,08,11,13,325.80
2016,11,08,11,14,466.30
2016,11,08,11,15,450.00
2016,11,08,11,16,431.20
2016,11,08,11,17,415.60
2016,11,08,11,18,408.00
2016,11,08,11,19,408.00
2016,11,08,11,20,405.20
2016,11,08,11,21,392.00
2016,11,08,11,22,441.60
2016,11,08,11,23,434.60
2016,11,08,11,24,429.20
2016,11,08,11,25,446.00
2016,11,08,11,26,448.00
2016,11,08,11,27,427.00
2016,11,08,11,28,427.70
2016,11,08,11,29,434.00
2016,11,08,11,30,423.20
2016,11,08,11,31,362.00
2016,11,08,11,32,325.50
2016,11,08,11,33,224.10
2016,11,08,11,34,220.30
2016,11,08,11,35,179.40
2016,11,08,11,36,199.40
2016,11,08,11,37,206.00
2016,11,08,11,38,206.00
2016,11,08,11,39,279.50
2016,11,08,11,40,353.00
2016,11,08,11,41,206.50
2016,11,08,11,42,123.60
2016,11,08,11,43,141.40
2016,11,08,11,44,148.00
2016,11,08,11,45,177.20
2016,11,08,11,46,191.40
2016,11,08,11,47,202.40
2016,11,08,11,48,208.50
2016,11,08,11,49,227.90
2016,11,08,11,50,278.50
2016,11,08,11,51,284.70
2016,11,08,11,52,361.70
2016,11,08,11,53,417.70
2016,11,08,11,54,388.40
2016,11,08,11,55,372.90
2016,11,08,11,56,369.00
2016,11,08,11,57,369.60
2016,11,08,11,58,371.70
2016,11,08,11,59,374.90
2016,11,08,12,00,356.50
2016,11,08,12,01,328.40
2016,11,08,12,02,330.00
2016,11,08,12,03,330.00
2016,11,08,12,04,330.00
2016,11,08,12,05,330.00
2016,11,08,12,06,330.00
2016,11,08,12,07,207.80
2016,11,08,12,08,193.40
2016,11,08,12,09,213.60
2016,11,08,12,10,209.70
2016,11,08,12,11,175.70
2016,11,08,12,12,184.60
2016,11,08,12,13,188.80
2016,11,08,12,14,206.00
2016,11,08,12,15,205.70
2016,11,08,12,16,202.90
2016,11,08,12,17,195.60
2016,11,08,12,18,185.20
2016,11,08,12,19,167.10
2016,11,08,12,20,158.00
2016,11,08,12,21,158.00
2016,11,08,12,22,278.40
2016,11,08,12,23,459.00
2016,11,08,12,24,459.00
2016,11,08,12,25,318.50
2016,11,08,12,26,192.00
2016,11,08,12,27,368.20
2016,11,08,12,28,471.00
2016,11,08,12,29,471.00
2016,11,08,12,30,383.10
2016,11,08,12,31,395.40
2016,11,08,12,32,441.60
2016,11,08,12,33,440.60
2016,11,08,12,34,439.00
2016,11,08,12,35,439.00
2016,11,08,12,36,438.60
2016,11,08,12,37,431.00
2016,11,08,12,38,405.20
2016,11,08,12,39,193.90
2016,11,08,12,40,225.60
2016,11,08,12,41,157.00
2016,11,08,12,42,154.80
2016,11,08,12,43,158.70
2016,11,08,12,44,128.00
2016,11,08,12,45,128.00
2016,11,08,12,46,127.60
2016,11,08,12,47,127.00
2016,11,08,12,48,128.50
2016,11,08,12,49,139.60
2016,11,08,12,50,186.90
2016,11,08,12,51,209.00
2016,11,08,12,52,209.00
2016,11,08,12,53,188.00
2016,11,08,12,54,251.90
2016,11,08,12,55,274.00
2016,11,08,12,56,274.00
2016,11,08,12,57,274.00
2016,11,08,12,58,137.60
2016,11,08,12,59,106.90
2016,11,08,13,00,124.00
2016,11,08,13,01,160.00
2016,11,08,13,02,172.60
2016,11,08,13,03,223.00
2016,11,08,13,04,216.80
2016,11,08,13,05,218.60
2016,11,08,13,06,269.00
2016,11,08,13,07,226.60
2016,11,08,13,08,148.00
2016,11,08,13,09,144.90
2016,11,08,13,10,147.00
2016,11,08,13,11,156.90
2016,11,08,13,12,157.10
2016,11,08,13,13,153.80
2016,11,08,13,14,151.70
2016,11,08,13,15,151.00
2016,11,08,13,16,145.80
2016,11,08,13,17,147.00
2016,11,08,13,18,153.90
2016,11,08,13,19,165.20
2016,11,08,13,20,183.20
2016,11,08,13,21,201.10
2016,11,08,13,22,214.40
2016,11,08,13,23,184.20
2016,11,08,13,24,170.10
2016,11,08,13,25,178.00
2016,11,08,13,26,163.80
2016,11,08,13,27,179.20
2016,11,08,13,28,204.00
2016,11,08,13,29,283.90
2016,11,08,13,30,438.50
2016,11,08,13,31,404.00
2016,11,08,13,32,308.40
2016,11,08,13,33,175.00
2016,11,08,13,34,157.40
2016,11,08,13,35,145.60
2016,11,08,13,36,147.20
2016,11,08,13,37,147.10
2016,11,08,13,38,143.20
2016,11,08,13,39,151.30
2016,11,08,13,40,147.90
2016,11,08,13,41,147.60
2016,11,08,13,42,148.00
2016,11,08,13,43,144.40
2016,11,08,13,44,137.40
2016,11,08,13,45,134.00
2016,11,08,13,46,122.10
2016,11,08,13,47,114.40
2016,11,08,13,48,119.80
2016,11,08,13,49,132.80
2016,11,08,13,50,144.00
2016,11,08,13,51,140.00
2016,11,08,13,52,125.70
2016,11,08,13,53,121.00
2016,11,08,13,54,121.00
2016,11,08,13,55,131.90
2016,11,08,13,56,153.50
2016,11,08,13,57,161.40
2016,11,08,13,58,149.60
2016,11,08,13,59,133.30
2016,11,08,14,00,149.30
2016,11,08,14,01,160.00
2016,11,08,14,02,229.80
2016,11,08,14,03,253.00
2016,11,08,14,04,134.60
2016,11,08,14,05,156.00
2016,11,08,14,06,216.00
2016,11,08,14,07,287.40
2016,11,08,14,08,294.00
2016,11,08,14,09,292.50
2016,11,08,14,10,277.10
2016,11,08,14,11,272.00
2016,11,08,14,12,272.00
2016,11,08,14,13,255.80
2016,11,08,14,14,214.50
2016,11,08,14,15,254.40
2016,11,08,14,16,285.00
2016,11,08,14,17,288.00
2016,11,08,14,18,220.90
2016,11,08,14,19,139.00
2016,11,08,14,20,193.50
2016,11,08,14,21,211.10
2016,11,08,14,22,119.10
2016,11,08,14,23,77.80
2016,11,08,14,24,79.20
2016,11,08,14,25,81.00
2016,11,08,14,26,81.00
2016,11,08,14,27,67.40
2016,11,08,14,28,72.70
2016,11,08,14,29,97.80
2016,11,08,14,30,102.00
2016,11,08,14,31,105.00
2016,11,08,14,32,165.00
2016,11,08,14,33,172.30
2016,11,08,14,34,234.00
2016,11,08,14,35,226.60
2016,11,08,14,36,214.20
2016,11,08,14,37,260.00
2016,11,08,14,38,260.00
2016,11,08,14,39,260.00
2016,11,08,14,40,230.00
2016,11,08,14,41,190.00
2016,11,08,14,42,148.10
2016,11,08,14,43,94.00
2016,11,08,14,44,86.00
2016,11,08,14,45,162.20
2016,11,08,14,46,213.00
2016,11,08,14,47,110.80
2016,11,08,14,48,65.50
2016,11,08,14,49,66.60
2016,11,08,14,50,63.80
2016,11,08,14,51,62.20
2016,11,08,14,52,62.90
2016,11,08,14,53,74.80
2016,11,08,14,54,141.00
2016,11,08,14,55,80.60
2016,11,08,14,56,76.60
2016,11,08,14,57,74.50
2016,11,08,14,58,85.20
2016,11,08,14,59,113.50
2016,11,08,15,00,113.40
2016,11,08,15,01,151.00
2016,11,08,15,02,123.40
2016,11,08,15,03,76.00
2016,11,08,15,04,131.40
2016,11,08,15,05,193.00
2016,11,08,15,06,177.50
2016,11,08,15,07,162.00
2016,11,08,15,08,94.50
2016,11,08,15,09,53.70
2016,11,08,15,10,87.30
2016,11,08,15,11,67.20
2016,11,08,15,12,47.60
2016,11,08,15,13,48.40
2016,11,08,15,14,43.00
2016,11,08,15,15,46.50
2016,11,08,15,16,52.70
2016,11,08,15,17,53.20
2016,11,08,15,18,56.70
2016,11,08,15,19,63.40
2016,11,08,15,20,67.30
2016,11,08,15,21,69.20
2016,11,08,15,22,68.20
2016,11,08,15,23,68.40
2016,11,08,15,24,111.80
2016,11,08,15,25,164.60
2016,11,08,15,26,150.40
2016,11,08,15,27,146.30
2016,11,08,15,28,123.80
2016,11,08,15,29,97.50
2016,11,08,15,30,107.00
2016,11,08,15,31,81.00
2016,11,08,15,32,108.70
2016,11,08,15,33,122.70
2016,11,08,15,34,108.90
2016,11,08,15,35,125.60
2016,11,08,15,36,81.00
2016,11,08,15,37,115.30
2016,11,08,15,38,106.80
2016,11,08,15,39,62.40
2016,11,08,15,40,54.00
2016,11,08,15,41,49.70
2016,11,08,15,42,55.00
2016,11,08,15,43,48.50
2016,11,08,15,44,45.60
2016,11,08,15,45,44.00
2016,11,08,15,46,44.50
2016,11,08,15,47,45.40
2016,11,08,15,48,42.60
2016,11,08,15,49,40.00
2016,11,08,15,50,39.60
2016,11,08,15,51,39.50
2016,11,08,15,52,40.00
2016,11,08,15,53,40.00
2016,11,08,15,54,39.40
2016,11,08,15,55,36.40
2016,11,08,15,56,32.90
2016,11,08,15,57,30.50
2016,11,08,15,58,30.00
2016,11,08,15,59,30.00
2016,11,08,16,00,30.00
2016,11,08,16,01,30.00
2016,11,08,16,02,30.00
2016,11,08,16,03,27.90
2016,11,08,16,04,25.90
2016,11,08,16,05,24.70
2016,11,08,16,06,23.00
2016,11,08,16,07,22.60
2016,11,08,16,08,20.20
2016,11,08,16,09,18.00
2016,11,08,16,10,17.30
2016,11,08,16,11,16.00
2016,11,08,16,12,16.00
2016,11,08,16,13,16.00
2016,11,08,16,14,15.00
2016,11,08,16,15,12.90
2016,11,08,16,16,11.40
2016,11,08,16,17,9.70
2016,11,08,16,18,9.00
2016,11,08,16,19,9.00
2016,11,08,16,20,9.00
2016,11,08,16,21,7.40
2016,11,08,16,22,7.00
2016,11,08,16,23,7.00
2016,11,08,16,24,7.00
2016,11,08,16,25,7.00
2016,11,08,16,26,7.00
2016,11,08,16,27,7.00
2016,11,08,16,28,6.80
2016,11,08,16,29,5.00
2016,11,08,16,30,5.00
2016,11,08,16,31,5.00
2016,11,08,16,32,5.00
2016,11,08,16,33,5.00
2016,11,08,16,34,3.00
2016,11,08,16,35,0.00
2016,11,08,16,36,0.00
2016,11,08,16,37,0.00
2016,11,08,16,38,0.00
2016,11,08,16,39,0.00
2016,11,08,16,40,0.00
2016,11,08,16,41,0.00
2016,11,08,16,42,0.00
2016,11,08,16,43,0.00
2016,11,08,16,44,0.00
2016,11,08,16,45,0.00
2016,11,08,16,46,0.00
2016,11,08,16,47,0.00
2016,11,08,16,48,0.00
2016,11,08,16,49,0.00
2016,11,08,16,50,0.00
2016,11,08,16,51,0.00
2016,11,08,16,52,0.00
2016,11,08,16,53,0.00
2016,11,08,16,54,0.00
2016,11,08,16,55,0.00
2016,11,08,16,56,0.00
2016,11,08,16,57,0.00
2016,11,08,16,58,0.00
2016,11,08,16,59,0.00
2016,11,08,17,00,0.00
2016,11,08,17,01,0.00
2016,11,08,17,02,0.00
2016,11,08,17,03,0.00
2016,11,08,17,04,0.00
2016,11,08,17,05,0.00
2016,11,08,17,06,0.00
2016,11,08,17,07,0.00
2016,11,08,17,08,0.00
2016,11,08,17,09,0.00
2016,11,08,17,10,0.00
2016,11,08,17,11,0.00
2016,11,08,17,12,0.00
2016,11,08,17,13,0.00
2016,11,08,17,14,0.00
2016,11,08,17,15,0.00
2016,11,08,17,16,0.00
2016,11,08,17,17,0.00
2016,11,08,17,18,0.00
2016,11,08,17,19,0.00
2016,11,08,17,20,0.00
2016,11,08,17,21,0.00
2016,11,08,17,22,0.00
2016,11,08,17,23,0.00
2016,11,08,17,24,0.00
2016,11,08,17,25,0.00
2016,11,08,17,26,0.00
2016,11,08,17,27,0.00
2016,11,08,17,28,0.00
2016,11,08,17,29,0.00
2016,11,08,17,30,0.00
2016,11,08,17,31,0.00
2016,11,08,17,32,0.00
2016,11,08,17,33,0.00
2016,11,08,17,34,0.00
2016,11,08,17,35,0.00
2016,11,08,17,36,0.00
2016,11,08,17,37,0.00
2016,11,08,17,38,0.00
2016,11,08,17,39,0.00
2016,11,08,17,40,0.00
2016,11,08,17,41,0.00
2016,11,08,17,42,0.00
2016,11,08,17,43,0.00
2016,11,08,17,44,0.00
2016,11,08,17,45,0.00
2016,11,08,17,46,0.00
2016,11,08,17,47,0.00
2016,11,08,17,48,0.00
2016,11,08,17,49,0.00
2016,11,08,17,50,0.00
2016,11,08,17,51,0.00
2016,11,08,17,52,0.00
2016,11,08,17,53,0.00
2016,11,08,17,54,0.00
2016,11,08,17,55,0.00
2016,11,08,17,56,0.00
2016,11,08,17,57,0.00
2016,11,08,17,58,0.00
2016,11,08,17,59,0.00
2016,11,08,18,00,0.00
2016,11,08,18,01,0.00
2016,11,08,18,02,0.00
2016,11,08,18,03,0.00
2016,11,08,18,04,0.00
2016,11,08,18,05,0.00
2016,11,08,18,06,0.00
2016,11,08,18,07,0.00
2016,11,08,18,08,0.00
2016,11,08,18,09,0.00
2016,11,08,18,10,0.00
2016,11,08,18,11,0.00
2016,11,08,18,12,0.00
2016,11,08,18,13,0.00
2016,11,08,18,14,0.00
2016,11,08,18,15,0.00
2016,11,08,18,16,0.00
2016,11,08,18,17,0.00
2016,11,08,18,18,0.00
2016,11,08,18,19,0.00
2016,11,08,18,20,0.00
2016,11,08,18,21,0.00
2016,11,08,18,22,0.00
2016,11,08,18,23,0.00
2016,11,08,18,24,0.00
2016,11,08,18,25,0.00
2016,11,08,18,26,0.00
2016,11,08,18,27,0.00
2016,11,08,18,28,0.00
2016,11,08,18,29,0.00
2016,11,08,18,30,0.00
2016,11,08,18,31,0.00
2016,11,08,18,32,0.00
2016,11,08,18,33,0.00
2016,11,08,18,34,0.00
2016,11,08,18,35,0.00
2016,11,08,18,36,0.00
2016,11,08,18,37,0.00
2016,11,08,18,38,0.00
2016,11,08,18,39,0.00
2016,11,08,18,40,0.00
2016,11,08,18,41,0.00
2016,11,08,18,42,0.00
2016,11,08,18,43,0.00
2016,11,08,18,44,0.00
2016,11,08,18,45,0.00
2016,11,08,18,46,0.00
2016,11,08,18,47,0.00
2016,11,08,18,48,0.00
2016,11,08,18,49,0.00
2016,11,08,18,50,0.00
2016,11,08,18,51,0.00
2016,11,08,18,52,0.00
2016,11,08,18,53,0.00
2016,11,08,18,54,0.00
2016,11,08,18,55,0.00
2016,11,08,18,56,0.00
2016,11,08,18,57,0.00
2016,11,08,18,58,0.00
2016,11,08,18,59,0.00
2016,11,08,19,00,0.00
2016,11,08,19,01,0.00
2016,11,08,19,02,0.00
2016,11,08,19,03,0.00
2016,11,08,19,04,0.00
2016,11,08,19,05,0.00
2016,11,08,19,06,0.00
2016,11,08,19,07,0.00
2016,11,08,19,08,0.00
2016,11,08,19,09,0.00
2016,11,08,19,10,0.00
2016,11,08,19,11,0.00
2016,11,08,19,12,0.00
2016,11,08,19,13,0.00
2016,11,08,19,14,0.00
2016,11,08,19,15,0.00
2016,11,08,19,16,0.00
2016,11,08,19,17,0.00
2016,11,08,19,18,0.00
2016,11,08,19,19,0.00
2016,11,08,19,20,0.00
2016,11,08,19,21,0.00
2016,11,08,19,22,0.00
2016,11,08,19,23,0.00
2016,11,08,19,24,0.00
2016,11,08,19,25,0.00
2016,11,08,19,26,0.00
2016,11,08,19,27,0.00
2016,11,08,19,28,0.00
2016,11,08,19,29,0.00
2016,11,08,19,30,0.00
2016,11,08,19,31,0.00
2016,11,08,19,32,0.00
2016,11,08,19,33,0.00
2016,11,08,19,34,0.00
2016,11,08,19,35,0.00
2016,11,08,19,36,0.00
2016,11,08,19,37,0.00
2016,11,08,19,38,0.00
2016,11,08,19,39,0.00
2016,11,08,19,40,0.00